User: anonymous   Login
Location: Unspecified
(0.0000°N, 0.0000°E)
Time: 09:00:04
(UTC+00:00)
Language:

WGS F1 (USA 195) - Orbit

View from above orbital plane
View from above orbital plane
View from above satellite
View from above satellite

Ground track
Ground track

The orbit data is extracted from the following two-line orbital elements,

1 32258U 07046A   17227.33088601 0.00000000  00000-0  00000-0 0    08
2 32258   0.0781 107.0147 0002003 217.3963 142.6350  1.00270000    05
Epoch (UTC): 15 August 2017 07:56:28
Eccentricity: 0.0002003
inclination: 0.0781°
perigee height: 35778 km
apogee height: 35795 km
right ascension of ascending node: 107.0147°
argument of perigee: 217.3963°
revolutions per day: 1.00270000
mean anomaly at epoch: 142.6350°
orbit number at epoch: 0

The dashed part of the orbit path shows where the satellite is in the earth's shadow,  

DLR